Retour au catalogue

STARLINK-37274

ActifCommunicationsVLEO
NORAD 68724·PAYLOAD·🇺🇸 United States

Lancé Apr 14, 2026 depuis Cape Canaveral Space Force Station

Loading…

Prochains Passages (prochaines 24 heures)

TLE

FraisSource: CelesTrak SupGP

Époque: Sep 15, 2026, 03:31 UTC

1 68724C 26081AB  26258.14701389 -.00063427  00000+0 -18739-2 0  2581
2 68724  53.1580 230.5014 0001393  89.5762 136.8225 15.34423102    12

Suivez STARLINK-37274 en temps réel avec AllMySat

Download on the App Store